Change the Weather History Date:

Tuesday, November 15, 2011

  Actual Average Record
Temperature  
Mean Temperature 51 °F 51 °F  
Max Temperature 66 °F 64 °F 84 °F (2010)
Min Temperature 35 °F 39 °F 28 °F (1978)
Degree Days  
Heating Degree Days 14    
Month to date heating degree days 212  
Since 1 July heating degree days 430  
Cooling Degree Days 0    
Month to date cooling degree days 0  
Year to date cooling degree days 175  
Moisture  
Dew Point 40 °F    
Average Humidity 73    
Maximum Humidity 100    
Minimum Humidity 45    
Precipitation  
Precipitation 0.00 in - 1.45 in (1931)
Month to date precipitation 1.56  
Year to date precipitation 18.60  
Since 1 July precipitation 2.75  
Sea Level Pressure  
Sea Level Pressure 30.11 in    
Wind  
Wind Speed 3 mph (SW)    
Max Wind Speed 7 mph    
Max Gust Speed 17 mph    
Visibility 6 miles    
Events Fog    
T = Trace of Precipitation, MM = Missing Value Source: NWS Daily Summary

Daily Weather History Graph

Daily Weather History Graph

Search for Another Location

Airport or City:

Trip Planner

Search our weather history database for the weather conditions in past years. The results will help you decide how hot, cold, wet, or windy it might be!

Date:

Astronomy

Nov. 15, 2011 Rise Set
Actual Time 6:50 AM PST 4:56 PM PST
Civil Twilight 6:21 AM PST 5:25 PM PST
Nautical Twilight 5:50 AM PST 5:56 PM PST
Astronomical Twilight 5:18 AM PST 6:28 PM PST
Moon 9:11 PM PST (11/15) 10:52 AM PST (11/15)
Length of Visible Light 11h 03m
Length of Day
10h 06m
Waning Gibbous, 78% of the Moon is Illuminated
Nov 15
Waning Gibbous
Nov 18
Last Quarter
Nov 24
New
Dec 2
First Quarter
Dec 10
Full

Hourly Weather History & Observations

Time (PST) Temp. Windchill Dew Point Humidity Pressure Visibility Wind Dir Wind Speed Gust Speed Precip Events Conditions
12:54 AM 42.1 °F - 39.9 °F 92% 30.05 in 4.0 mi Calm Calm - N/A   Clear
1:06 AM 39.2 °F - 39.2 °F 100% 30.07 in 1.8 mi Calm Calm - N/A   Scattered Clouds
1:54 AM 37.9 °F - 37.0 °F 97% 30.05 in 0.5 mi Calm Calm - N/A Fog Fog
2:54 AM 39.0 °F - 37.9 °F 96% 30.07 in 0.2 mi Calm Calm - N/A Fog Fog
3:13 AM 37.4 °F - 37.4 °F 100% 30.10 in 1.0 mi Calm Calm - N/A   Mist
3:18 AM 39.2 °F - 37.4 °F 93% 30.10 in 4.0 mi Calm Calm - N/A   Mostly Cloudy
3:26 AM 37.4 °F 34.9 °F 37.4 °F 100% 30.10 in 6.0 mi NNE 3.5 mph - N/A   Scattered Clouds
3:50 AM 37.4 °F - 35.6 °F 93% 30.10 in 1.8 mi Calm Calm - N/A   Clear
3:54 AM 39.0 °F - 37.0 °F 93% 30.08 in 1.0 mi Calm Calm - N/A   Clear
4:59 AM 39.2 °F - 37.4 °F 93% 30.11 in 1.8 mi Calm Calm - N/A   Clear
5:01 AM 37.4 °F - 37.4 °F 100% 30.11 in 1.0 mi Calm Calm - N/A   Mist
5:06 AM 37.4 °F - 37.4 °F 100% 30.11 in 0.5 mi Calm Calm - N/A Fog Fog
5:19 AM 37.4 °F - 37.4 °F 100% 30.11 in 1.0 mi Calm Calm - N/A   Mist
5:23 AM 37.4 °F - 37.4 °F 100% 30.11 in 2.0 mi Calm Calm - N/A   Partly Cloudy
5:42 AM 39.2 °F 35.0 °F 37.4 °F 93% 30.13 in 3.0 mi North 5.8 mph - N/A   Clear
5:54 AM 39.9 °F 36.7 °F 39.0 °F 97% 30.10 in 7.0 mi North 4.6 mph - N/A   Clear
6:52 AM 35.6 °F - 35.6 °F 100% 30.14 in 1.2 mi Calm Calm - N/A   Clear
6:54 AM 36.0 °F - 36.0 °F 100% 30.12 in 0.5 mi Calm Calm - N/A Fog Fog
7:02 AM 37.4 °F - 37.4 °F 100% 30.15 in 10.0 mi Calm Calm - N/A   Scattered Clouds
7:54 AM 44.1 °F 42.5 °F 42.1 °F 93% 30.14 in 10.0 mi NNE 3.5 mph - N/A   Scattered Clouds
8:54 AM 50.0 °F - 46.0 °F 86% 30.16 in 10.0 mi North 3.5 mph - N/A   Clear
9:54 AM 55.0 °F - 46.9 °F 74% 30.16 in 10.0 mi Calm Calm - N/A   Clear
10:54 AM 59.0 °F - 46.0 °F 62% 30.16 in 10.0 mi WSW 4.6 mph - N/A   Clear
11:54 AM 61.0 °F - 45.0 °F 56% 30.14 in 10.0 mi SW 4.6 mph - N/A   Clear
12:54 PM 63.0 °F - 46.0 °F 54% 30.12 in 10.0 mi SSW 5.8 mph - N/A   Clear
1:54 PM 64.9 °F - 44.1 °F 47% 30.11 in 10.0 mi SW 4.6 mph - N/A   Clear
2:54 PM 66.0 °F - 44.1 °F 45% 30.09 in 10.0 mi South 4.6 mph - N/A   Clear
3:54 PM 64.9 °F - 45.0 °F 48% 30.09 in 10.0 mi South 3.5 mph - N/A   Clear
4:54 PM 57.9 °F - 46.0 °F 65% 30.09 in 10.0 mi SSW 4.6 mph - N/A   Clear
5:54 PM 52.0 °F - 43.0 °F 71% 30.09 in 10.0 mi SE 4.6 mph - N/A   Clear
6:54 PM 48.9 °F - 43.0 °F 80% 30.10 in 10.0 mi SSW 3.5 mph - N/A   Clear
7:54 PM 48.9 °F - 44.1 °F 83% 30.11 in 10.0 mi SSE 4.6 mph - N/A   Clear
8:54 PM 46.9 °F - 43.0 °F 86% 30.12 in 10.0 mi Calm Calm - N/A   Clear
9:54 PM 45.0 °F - 42.1 °F 90% 30.13 in 10.0 mi Calm Calm - N/A   Clear
10:54 PM 44.1 °F - 41.0 °F 89% 30.13 in 10.0 mi Calm Calm - N/A   Clear
11:31 PM 41.0 °F - 39.2 °F 93% 30.16 in 1.8 mi Calm Calm - N/A   Clear
11:42 PM 41.0 °F - 39.2 °F 93% 30.16 in 3.0 mi Calm Calm - N/A   Clear
11:54 PM 41.0 °F - 39.9 °F 96% 30.13 in 10.0 mi Calm Calm - N/A   Clear